Weather in Bordunskiy

Kyrgyzstan     42°41′48″N   75°34′12″E
temp.,
°C
wind,
m/s
gust,
m/s
humid.,
%
clouds,
%
prec.,
mm/h
press.,
hPa
HPBL,
m
17 may, mon
mon1700:00+9ese34460 0.0 102040
03:00+8ese34450 0.0 101948
06:00+8ese34460 0.0 101946
09:00+16ene44390 0.0 1018490
12:00+19n11290 0.0 10171299
15:00+20wnw33300 0.0 10161717
18:00+19wnw22400 0.0 1017882
21:00+12se22530 0.0 101818
18 may, tue
tue1800:00+11se33470 0.0 101731
03:00+11se34450 0.0 101543
06:00+11ese45420 0.0 101554
09:00+19e34340 0.0 1013455
12:00+22n22270 0.0 10111242
15:00+23wnw43302 0.0 10101700
18:00+20sw234386 0.1 1012629
21:00+15se335214 0.0 101330
19 may, wed
wed1900:00+14se33462 0.0 101229
03:00+13se334338 0.0 101128
06:00+13se234365 0.0 101022
09:00+20ne11361 0.0 1009390
12:00+22wnw33290 0.0 10081471
15:00+23wnw5428100 0.0 10072632
18:00+20ssw224696 0.0 1008212
21:00+15se334511 0.0 101029
20 may, thu
thu2000:00+14ese3351100 0.1 101130
03:00+13se34457 0.0 101038
06:00+14se44435 0.0 100944
09:00+21ene133167 0.0 10091512
12:00+19s773936 0.1 1011833
15:00+23sw55315 0.0 10101758
18:00+21ene2242100 0.0 1011436
21:00+16ese335135 0.0 101339
21 may, fri
fri2100:00+13sw12494 0.0 101412
03:00+13ese33464 0.0 101325
06:00+13se234673 0.0 101321
09:00+19ne1240100 0.0 1012359
12:00+22wnw2237100 0.0 10111018
15:00+22wnw4439100 0.1 10111584
18:00+17ene4564100 0.5 1013168
21:00+14ese2263100 0.4 101525